STARLINK-1975 (47573 NORAD) Tracking and Keplerian Element Data

This shows tracking and keplerian element data for the satellite.

Feedback or suggestion? Click here.




ElementValue
Catalog47573
NameSTARLINK-1975
Epoch Orbit176
Epoch Day59.91667824
Epoch Year2021
RAAN2.9446
Inclination53.0542
Eccentricity0.0001269
Argument of Perigee69.5694
Mean Anonmoly281.0327
Mean Motion15.62849148
Decay Rate-0.00098148
L11 47573U 21009AB 21059.91667824 -.00098148 00000-0 -10750-2 0 9995
L22 47573 53.0542 2.9446 0001269 69.5694 281.0327 15.62849148 1764

Live tracking and technical data element details for STARLINK-1975 (NORAD 47573). STARLINK-1975 can be tracked NOW for your location showing map with azimuth and elevation plus other details from your city location.

Track the satellite on the map from your city or location and see movement details for azimuth, elevation, latitude, longitude, range, height, and movement on the map or in text.







IsCatalogInMostPopularTable: catalog: 47573, numindb: 3
Update: records affected: 1



GetName: 47573 STARLINK-1975

Hit Count: updated at: Mon, 01 Mar 2021 15:53:04 GMT